This demonstration page uses our WeatherBlox Daily Observations layout. Learn more.

Left ArrowRight Arrow

44.8408, -93.29828

Hourly Observations for June 13, 2017

Temp ( °F °C ) Dew Point ( °F °C ) Humidity (%) Winds ( mph kmh ) Pressure ( in mb ) Visibility ( mi km ) Precip ( " mm )
12:53 am 00:53 Partly Cloudy 68 20 64 17.8 87 87 ESE 8 13 29.88 1012 10 16 0.00 0.00
1:53 am 01:53 Partly Cloudy 68 20 63 17.2 84 84 SE 7 11 29.88 1012 9 14 0.00 0.00
2:53 am 02:53 Cloudy 68 20 63 17.2 84 84 ESE 6 9 29.87 1012 10 16 0.00 0.00
3:53 am 03:53 Cloudy 68 20 63 17.2 84 84 ESE 7 11 29.86 1011 10 16 0.00 0.00
4:53 am 04:53 Mostly Cloudy 68 20 63 17.2 84 84 E 9 15 29.85 1011 10 16 0.00 0.00
5:53 am 05:53 Mostly Cloudy 68 20 63 17.2 84 84 E 8 13 29.85 1011 10 16 0.00 0.00
6:53 am 06:53 Mostly Cloudy 69 20.6 64 17.8 84 84 ESE 10 17 29.84 1011 10 16 0.00 0.00
7:53 am 07:53 Mostly Cloudy 70 21.1 64 17.8 82 82 ESE 14 22 29.83 1010 10 16 0.00 0.00
8:53 am 08:53 Mostly Cloudy 73 22.8 65 18.3 76 76 ESE 15 24 29.80 1009 10 16 0.00 0.00
9:53 am 09:53 Cloudy 76 24.4 66 18.9 72 72 ESE 16 26 29.81 1009 10 16 0.00 0.00
10:53 am 10:53 Cloudy 77 25 67 19.4 71 71 E 10 17 29.84 1011 10 16 0.00 0.00
11:08 am 11:08 Cloudy 79 26.1 68 20 69 69 E 7 11 29.85 1011 10 16 0.00 0.00
11:53 am 11:53 Cloudy 78 25.6 68 20 71 71 E 12 19 29.85 1011 10 16 0.00 0.00
12:07 pm 12:07 Cloudy 79 26.1 68 20 69 69 ENE 9 15 29.85 1011 10 16 0.00 0.00
12:43 pm 12:43 Mostly Cloudy 83 28.3 70 21.1 65 65 ESE 20 31 29.77 1008 10 16 0.00 0.00
12:53 pm 12:53 Mostly Cloudy 83 28.3 70 21.1 65 65 ESE 18 30 29.80 1009 10 16 0.00 0.00
1:53 pm 13:53 Mostly Cloudy 86 30 71 21.7 61 61 E 18 30 29.76 1008 10 16 0.00 0.00
2:53 pm 14:53 Mostly Cloudy 86 30 72 22.2 63 63 ESE 21 33 29.73 1007 10 16 0.00 0.00
3:53 pm 15:53 Mostly Cloudy 87 30.6 73 22.8 63 63 ESE 18 30 29.72 1006 10 16 0.00 0.00
4:53 pm 16:53 Mostly Cloudy 90 32.2 70 21.1 52 52 SE 21 33 29.70 1006 10 16 0.00 0.00
5:53 pm 17:53 Partly Cloudy 91 32.8 70 21.1 50 50 SSE 21 33 29.67 1005 10 16 0.00 0.00
6:53 pm 18:53 Partly Cloudy 90 32.2 68 20 48 48 SSE 18 30 29.67 1005 10 16 0.00 0.00
7:53 pm 19:53 Partly Cloudy 88 31.1 67 19.4 50 50 SE 20 31 29.64 1004 10 16 0.00 0.00
8:53 pm 20:53 Partly Cloudy 86 30 67 19.4 53 53 SSE 13 20 29.64 1004 10 16 0.00 0.00
9:53 pm 21:53 Mostly Clear 84 28.9 69 20.6 61 61 SE 15 24 29.64 1004 10 16 0.00 0.00
10:53 pm 22:53 Mostly Cloudy 82 27.8 70 21.1 67 67 SSE 12 19 29.68 1005 10 16 0.00 0.00
11:53 pm 23:53 Cloudy 82 27.8 69 20.6 65 65 SSE 14 22 29.68 1005 10 16 0.00 0.00

Powered by AerisWeather